Location: *
(41.0833°N, 73.4167°W)
Time: 14:07:37
(UTC+00:00)

Cosmos 1726 - Pass Details

Date: 22 October 2019
Orbit: 483 x 500 km, 82.5° (Epoch: 13 November)

Event Time Altitude Azimuth Distance (km) Brightness Sun altitude
Rises 09:04:22 0° 3° (N) 2,562 5.9 -24.8°
Reaches altitude 10° 09:06:41 10° 15° (NNE) 1,679 5.0 -24.4°
Maximum altitude 09:09:53 28° 76° (ENE) 942 4.2 -23.8°
Drops below altitude 10° 09:13:06 10° 137° (SE) 1,675 5.2 -23.2°
Sets 09:15:24 0° 150° (SSE) 2,554 6.1 -22.8°
